Regional Weather Roundup
Issued by NWS State College, PA

Home | Current Version | Previous Version | Text Only | Print | Product List | Glossary Off
Versions: 1 2 3 4 5 6 7 8 9 10 11 12 13 14 15 16 17 18 19 20 21 22 23 24 25 26 27 28 29 30 31 32 33 34 35 36 37 38 39 40 41 42 43 44 45 46 47 48 49 50

000
ASUS41 KCTP 240310
RWRCTP

REGIONAL WEATHER ROUNDUP
NATIONAL WEATHER SERVICE STATE COLLEGE PA
1100 PM EDT SAT JUL 23 2016

Note: "fair" indicates few or no clouds below 12,000 feet with no
significant weather and/or obstructions to visibility.

* = STATION THAT DOES NOT REPORT PRECIPITATION /E.G. RAIN...SNOW...ETC/
    THUNDER OR FOG.

PAZ002>004-007>009-013>016-020>023-029>032-240400-
WESTERN PENNSYLVANIA

CITY           SKY/WX    TMP DP  RH WIND       PRES   REMARKS
ERIE           CLEAR     74  63  68 S5        30.01R
MEADVILLE      CLOUDY    72  59  63 CALM      30.04R
FRANKLIN*      CLOUDY    70  55  60 CALM      30.07R
NEW CASTLE     FAIR      71  63  75 CALM      30.03R
BEAVER COUNTY  NOT AVBL
BUTLER*        CLOUDY    75  61  60 N5        30.06R
PITTSBURGH INT CLOUDY    78  70  76 N5        30.02R
PITTSBURGH     CLOUDY    74  69  85 S5        30.01R
INDIANA*       CLEAR     73  66  78 CALM      30.07R
LATROBE        CLOUDY    72  72 100 CALM      30.03R
WASHINGTON CO* PTCLDY    72  70  94 CALM      30.02S
$$

PAZ004>006-010>012-017>019-024>028-033>037-041-042-045-046-049>053-240400-
CENTRAL PENNSYLVANIA

CITY           SKY/WX    TMP DP  RH WIND       PRES   REMARKS
BRADFORD       CLOUDY    64  57  78 CALM      30.07R
DUBOIS         CLEAR     75  57  53 N6        30.04R
CLEARFIELD     CLEAR     69  56  62 N8        30.03R
JOHNSTOWN      CLEAR     73  65  75 W3        30.07R
ALTOONA        CLEAR     71  66  84 CALM      30.03R
STATE COLLEGE  CLEAR     80  55  41 NW5       30.00S
WILLIAMSPORT   CLEAR     76  57  51 CALM      29.94R
SELINSGROVE    CLEAR     69  65  86 CALM      29.94R
FT INDIANTOWN  CLEAR     79  57  46 VRB6      29.92R
CAPITAL CITY   CLEAR     77  61  57 SW6       29.92R
HARRISBURG     PTCLDY    77  73  87 CALM      29.91R
YORK           CLEAR     73  70  90 CALM      29.94R
$$

PAZ038>040-043-044-047-048-054-055-060>062-067>071-240400-
EASTERN PENNSYLVANIA

CITY           SKY/WX    TMP DP  RH WIND       PRES   REMARKS
SCRANTON       CLEAR     75  56  51 CALM      29.96R
MOUNT POCONO   CLEAR     72  32  23 N7        30.00S
ALLENTOWN      CLEAR     82  56  40 NE5       29.92R
QUAKERTOWN*    PTCLDY    75  68  78 CALM      29.94R
READING        CLEAR     76  68  76 CALM      29.91R
LANCASTER      PTCLDY    72  70  93 CALM      29.92R
COATESVILLE    PTCLDY    73  68  83 W7        29.94S
POTTSTOWN      PTCLDY    76  68  76 CALM      29.93R
BLUE BELL      CLEAR     72  68  88 CALM      29.90R
DOYLESTOWN     PTCLDY    77  66  68 CALM      29.91R
WILLOW GROVE   NOT AVBL
NORTH PHILA    PTCLDY    80  70  71 W5        29.91R
PHILADELPHIA   PTCLDY    80  70  71 SW6       29.89F
$$




USA.gov is the U.S. government's official web portal to all federal, state and local government web resources and services.